START_TIME,STEP,MOV.,M34,t_acc.,L5,t_acc.,L18,t_acc.,L14,t_acc.
1979-07-05 06:00:25.450 ,0,1,0.,12.0,0.,12.0,0.,12.0,0.,12.0
1979-07-05 06:00:37.460 ,0,1,0.,12.0,0.,12.0,0.,12.0,0.,12.0
1979-07-05 06:00:49.460 ,3,1,0.,12.0,0.,12.0,0.,12.0,0.,12.0
1979-07-05 06:01:01.460 ,3,1,0.,12.0,0.,12.0,0.,12.0,0.,12.0
1979-07-05 06:01:13.460 ,7,1,0.,12.0,0.,12.0,0.,12.0,0.,12.0
1979-07-05 06:01:25.460 ,7,1,0.,12.0,0.,12.0,0.,12.0,0.,12.0
1979-07-05 06:01:37.450 ,4,1,0.,12.0,0.,12.0,0.,12.0,0.,12.0
1979-07-05 06:01:49.460 ,4,1,0.,12.0,0.,12.0,0.,12.0,0.,12.0
1979-07-05 06:02:01.450 ,0,1,0.,12.0,0.,12.0,0.,12.0,0.,12.0
1979-07-05 06:02:13.460 ,0,1,0.,12.0,0.,12.0,0.,12.0,0.,12.0
1979-07-05 06:02:25.460 ,3,1,0.,12.0,0.,12.0,0.,12.0,0.,12.0
1979-07-05 06:02:37.460 ,3,1,1.,12.0,0.,12.0,0.,12.0,0.,12.0
1979-07-05 06:02:49.460 ,7,1,0.,12.0,0.,12.0,0.,12.0,0.,12.0
1979-07-05 06:03:01.460 ,7,1,0.,12.0,0.,12.0,0.,12.0,0.,12.0
1979-07-05 06:03:13.460 ,4,1,0.,12.0,0.,12.0,0.,12.0,0.,12.0
1979-07-05 06:03:25.460 ,4,1,0.,12.0,0.,12.0,0.,12.0,0.,12.0
1979-07-05 06:03:37.460 ,0,1,0.,12.0,0.,12.0,0.,12.0,0.,12.0
1979-07-05 06:03:49.460 ,0,1,0.,12.0,0.,12.0,0.,12.0,0.,12.0
1979-07-05 06:04:01.460 ,3,1,0.,12.0,0.,12.0,0.,12.0,0.,12.0
1979-07-05 06:04:13.460 ,3,1,0.,12.0,0.,12.0,0.,12.0,0.,12.0
1979-07-05 06:04:25.460 ,7,1,0.,12.0,0.,12.0,0.,12.0,0.,12.0
1979-07-05 06:04:37.460 ,7,1,0.,12.0,0.,12.0,0.,12.0,0.,12.0
1979-07-05 06:04:49.460 ,4,1,0.,12.0,0.,12.0,0.,12.0,0.,12.0
1979-07-05 06:05:01.460 ,4,1,0.,12.0,0.,12.0,0.,12.0,0.,12.0
1979-07-05 06:05:13.460 ,0,1,0.,12.0,0.,12.0,0.,12.0,0.,12.0
1979-07-05 06:05:25.460 ,0,1,0.,12.0,0.,12.0,0.,12.0,0.,12.0
1979-07-05 06:05:37.460 ,0,0,0.,12.0,0.,12.0,0.,12.0,0.,12.0
1979-07-05 06:05:49.460 ,0,0,0.,12.0,0.,12.0,0.,12.0,0.,12.0
1979-07-05 06:06:01.460 ,0,0,0.,12.0,0.,12.0,0.,12.0,0.,12.0
1979-07-05 06:06:13.460 ,0,0,0.,12.0,0.,12.0,0.,12.0,0.,12.0
1979-07-05 06:06:25.450 ,5,1,0.,12.0,0.,12.0,0.,12.0,0.,12.0
1979-07-05 06:06:37.450 ,5,1,0.,12.0,0.,12.0,0.,12.0,0.,12.0
1979-07-05 06:06:49.450 ,5,0,0.,12.0,0.,12.0,0.,12.0,0.,12.0
1979-07-05 06:07:01.450 ,5,0,0.,12.0,0.,12.0,0.,12.0,0.,12.0
1979-07-05 06:07:13.450 ,4,1,0.,12.0,0.,12.0,0.,12.0,0.,12.0
1979-07-05 06:07:25.450 ,4,1,0.,12.0,0.,12.0,0.,12.0,0.,12.0
1979-07-05 06:07:37.450 ,4,0,0.,12.0,0.,12.0,0.,12.0,0.,12.0
1979-07-05 06:07:49.450 ,4,0,0.,12.0,0.,12.0,0.,12.0,0.,12.0
1979-07-05 06:08:01.450 ,3,1,0.,12.0,0.,12.0,0.,12.0,0.,12.0
1979-07-05 06:08:13.450 ,3,1,0.,12.0,0.,12.0,0.,12.0,0.,12.0
1979-07-05 06:08:25.450 ,3,0,0.,12.0,0.,12.0,0.,12.0,0.,12.0
1979-07-05 06:08:37.450 ,3,0,0.,12.0,0.,12.0,0.,12.0,0.,12.0
1979-07-05 06:08:49.450 ,2,1,0.,12.0,0.,12.0,0.,12.0,0.,12.0
1979-07-05 06:09:01.450 ,2,1,0.,12.0,0.,12.0,0.,12.0,0.,12.0
1979-07-05 06:09:13.450 ,2,0,0.,12.0,0.,12.0,0.,12.0,0.,12.0
1979-07-05 06:09:25.450 ,2,0,0.,12.0,0.,12.0,0.,12.0,0.,12.0
1979-07-05 06:09:37.450 ,1,1,0.,12.0,0.,12.0,0.,12.0,0.,12.0
1979-07-05 06:09:49.450 ,1,1,0.,12.0,0.,12.0,0.,12.0,0.,12.0
1979-07-05 06:10:01.450 ,1,0,0.,12.0,0.,12.0,0.,12.0,0.,12.0
1979-07-05 06:10:13.450 ,1,0,0.,12.0,0.,12.0,0.,12.0,0.,12.0
1979-07-05 06:10:25.450 ,0,1,0.,12.0,0.,12.0,0.,12.0,0.,12.0
1979-07-05 06:10:37.450 ,0,1,0.,12.0,0.,12.0,0.,12.0,0.,12.0
1979-07-05 06:10:49.450 ,0,0,0.,12.0,0.,12.0,0.,12.0,0.,12.0
1979-07-05 06:11:01.450 ,0,0,0.,12.0,0.,12.0,0.,12.0,0.,12.0
1979-07-05 06:11:13.450 ,0,1,0.,12.0,0.,12.0,0.,12.0,0.,12.0
1979-07-05 06:11:25.450 ,0,1,0.,12.0,0.,12.0,0.,12.0,0.,12.0
1979-07-05 06:11:37.450 ,0,0,0.,12.0,0.,12.0,0.,12.0,0.,12.0
1979-07-05 06:11:49.450 ,0,0,0.,12.0,0.,12.0,0.,12.0,0.,12.0
1979-07-05 06:12:01.450 ,1,1,0.,12.0,0.,12.0,0.,12.0,0.,12.0
1979-07-05 06:12:13.450 ,1,1,0.,12.0,0.,12.0,0.,12.0,0.,12.0
1979-07-05 06:12:25.450 ,1,0,0.,12.0,0.,12.0,0.,12.0,0.,12.0
1979-07-05 06:12:37.450 ,1,0,0.,12.0,0.,12.0,0.,12.0,0.,12.0
1979-07-05 06:12:49.450 ,2,1,0.,12.0,0.,12.0,0.,12.0,0.,12.0
1979-07-05 06:13:01.450 ,2,1,0.,12.0,0.,12.0,0.,12.0,0.,12.0
1979-07-05 06:13:13.450 ,0,0,0.,12.0,0.,12.0,0.,12.0,0.,12.0
1979-07-05 06:13:25.450 ,0,0,0.,12.0,0.,12.0,0.,12.0,0.,12.0
1979-07-05 06:13:42.250 ,0,0,,0,,0,,0,,0
1979-07-05 06:13:54.250 ,0,0,0.,12.0,0.,12.0,0.,12.0,0.,12.0
1979-07-05 06:14:01.450 ,0,0,0.,12.0,0.,12.0,0.,12.0,0.,12.0
1979-07-05 06:14:13.450 ,0,0,0.,12.0,0.,12.0,0.,12.0,0.,12.0
1979-07-05 06:14:25.450 ,4,1,0.,12.0,0.,12.0,0.,12.0,0.,12.0
1979-07-05 06:14:37.450 ,4,1,0.,12.0,0.,12.0,0.,12.0,0.,12.0
1979-07-05 06:14:49.450 ,4,0,0.,12.0,0.,12.0,0.,12.0,0.,12.0
1979-07-05 06:15:01.450 ,4,0,0.,12.0,0.,12.0,0.,12.0,0.,12.0
1979-07-05 06:15:13.450 ,5,1,0.,12.0,0.,12.0,0.,12.0,0.,12.0
1979-07-05 06:15:25.450 ,5,1,0.,12.0,0.,12.0,0.,12.0,0.,12.0
1979-07-05 06:15:37.450 ,5,0,0.,12.0,0.,12.0,0.,12.0,0.,12.0
1979-07-05 06:15:49.450 ,5,0,0.,12.0,0.,12.0,0.,12.0,0.,12.0
1979-07-05 06:16:01.450 ,6,1,1.,12.0,0.,12.0,0.,12.0,0.,12.0
1979-07-05 06:16:13.450 ,6,1,0.,12.0,0.,12.0,0.,12.0,0.,12.0
1979-07-05 06:16:25.450 ,6,0,0.,12.0,0.,12.0,0.,12.0,0.,12.0
1979-07-05 06:16:37.450 ,6,0,0.,12.0,0.,12.0,0.,12.0,0.,12.0
1979-07-05 06:16:49.450 ,7,1,0.,12.0,0.,12.0,0.,12.0,0.,12.0
1979-07-05 06:17:01.450 ,7,1,0.,12.0,0.,12.0,0.,12.0,0.,12.0
1979-07-05 06:17:13.450 ,7,0,0.,12.0,0.,12.0,0.,12.0,0.,12.0
1979-07-05 06:17:25.450 ,7,0,0.,12.0,0.,12.0,0.,12.0,0.,12.0
1979-07-05 06:17:37.450 ,7,1,0.,12.0,0.,12.0,0.,12.0,0.,12.0
1979-07-05 06:17:49.450 ,7,1,0.,12.0,0.,12.0,0.,12.0,0.,12.0
1979-07-05 06:18:01.450 ,7,0,0.,12.0,0.,12.0,0.,12.0,0.,12.0
1979-07-05 06:18:13.450 ,7,0,0.,12.0,0.,12.0,0.,12.0,0.,12.0
1979-07-05 06:18:25.450 ,6,1,0.,12.0,0.,12.0,0.,12.0,0.,12.0
1979-07-05 06:18:37.450 ,6,1,0.,12.0,0.,12.0,0.,12.0,0.,12.0
1979-07-05 06:18:49.450 ,6,0,0.,12.0,0.,12.0,0.,12.0,0.,12.0
1979-07-05 06:19:01.450 ,6,0,0.,12.0,0.,12.0,0.,12.0,0.,12.0
1979-07-05 06:19:13.450 ,5,1,0.,12.0,0.,12.0,0.,12.0,0.,12.0
1979-07-05 06:19:25.450 ,5,1,0.,12.0,0.,12.0,0.,12.0,0.,12.0
1979-07-05 06:19:37.450 ,5,0,0.,12.0,0.,12.0,0.,12.0,0.,12.0
1979-07-05 06:19:49.450 ,5,0,0.,12.0,0.,12.0,0.,12.0,0.,12.0
1979-07-05 06:20:01.450 ,4,1,0.,12.0,0.,12.0,0.,12.0,0.,12.0
1979-07-05 06:20:13.450 ,4,1,0.,12.0,0.,12.0,0.,12.0,0.,12.0
1979-07-05 06:20:25.450 ,4,0,0.,12.0,0.,12.0,0.,12.0,0.,12.0
1979-07-05 06:20:37.450 ,4,0,0.,12.0,0.,12.0,0.,12.0,0.,12.0
1979-07-05 06:20:49.450 ,3,1,0.,12.0,0.,12.0,0.,12.0,0.,12.0
1979-07-05 06:21:01.450 ,3,1,0.,12.0,0.,12.0,0.,12.0,0.,12.0
1979-07-05 06:21:13.450 ,3,0,0.,12.0,0.,12.0,0.,12.0,0.,12.0
1979-07-05 06:21:25.450 ,3,0,0.,12.0,0.,12.0,0.,12.0,0.,12.0
1979-07-05 06:21:37.450 ,2,1,0.,12.0,0.,12.0,0.,12.0,0.,12.0
1979-07-05 06:21:49.450 ,2,1,0.,12.0,0.,12.0,0.,12.0,0.,12.0
1979-07-05 06:22:01.450 ,2,0,0.,12.0,0.,12.0,0.,12.0,0.,12.0
1979-07-05 06:22:13.450 ,2,0,0.,12.0,0.,12.0,0.,12.0,0.,12.0
1979-07-05 06:22:25.450 ,1,1,0.,12.0,0.,12.0,0.,12.0,0.,12.0
1979-07-05 06:22:37.450 ,1,1,0.,12.0,0.,12.0,0.,12.0,0.,12.0
1979-07-05 06:22:49.450 ,1,0,0.,12.0,0.,12.0,0.,12.0,0.,12.0
1979-07-05 06:23:01.450 ,1,0,0.,12.0,0.,12.0,0.,12.0,0.,12.0
1979-07-05 06:23:13.450 ,0,1,0.,12.0,0.,12.0,0.,12.0,0.,12.0
1979-07-05 06:23:25.450 ,0,1,1.,12.0,0.,12.0,0.,12.0,0.,12.0
1979-07-05 06:23:37.450 ,0,0,0.,12.0,0.,12.0,0.,12.0,0.,12.0
1979-07-05 06:23:49.450 ,0,0,0.,12.0,0.,12.0,0.,12.0,0.,12.0
1979-07-05 06:24:01.450 ,0,1,0.,12.0,0.,12.0,0.,12.0,0.,12.0
1979-07-05 06:24:13.450 ,0,1,0.,12.0,0.,12.0,0.,12.0,0.,12.0
1979-07-05 06:24:25.450 ,0,0,0.,12.0,0.,12.0,0.,12.0,0.,12.0
1979-07-05 06:24:37.450 ,0,0,0.,12.0,0.,12.0,0.,12.0,0.,12.0
1979-07-05 06:24:49.450 ,1,1,0.,12.0,0.,12.0,0.,12.0,0.,12.0
1979-07-05 06:25:01.450 ,1,1,0.,12.0,0.,12.0,0.,12.0,0.,12.0
1979-07-05 06:25:13.450 ,1,0,0.,12.0,0.,12.0,0.,12.0,0.,12.0
1979-07-05 06:25:25.450 ,1,0,0.,12.0,0.,12.0,0.,12.0,0.,12.0
1979-07-05 06:25:37.450 ,2,1,0.,12.0,0.,12.0,0.,12.0,0.,12.0
1979-07-05 06:25:49.450 ,2,1,0.,12.0,0.,12.0,0.,12.0,0.,12.0
1979-07-05 06:26:01.450 ,2,0,0.,12.0,0.,12.0,0.,12.0,0.,12.0
1979-07-05 06:26:13.450 ,2,0,0.,12.0,0.,12.0,0.,12.0,0.,12.0
1979-07-05 06:26:25.450 ,3,1,0.,12.0,0.,12.0,0.,12.0,0.,12.0
1979-07-05 06:26:37.450 ,3,1,0.,12.0,0.,12.0,0.,12.0,0.,12.0
1979-07-05 06:26:49.450 ,3,0,0.,12.0,0.,12.0,0.,12.0,0.,12.0
1979-07-05 06:27:01.450 ,3,0,0.,12.0,0.,12.0,0.,12.0,0.,12.0
1979-07-05 06:27:13.450 ,4,1,0.,12.0,0.,12.0,0.,12.0,1.,12.0
1979-07-05 06:27:25.450 ,4,1,0.,12.0,0.,12.0,0.,12.0,0.,12.0
1979-07-05 06:27:37.450 ,4,0,0.,12.0,0.,12.0,0.,12.0,0.,12.0
1979-07-05 06:27:49.450 ,4,0,0.,12.0,0.,12.0,0.,12.0,0.,12.0
1979-07-05 06:28:01.450 ,5,1,0.,12.0,0.,12.0,0.,12.0,0.,12.0
1979-07-05 06:28:13.450 ,5,1,0.,12.0,0.,12.0,0.,12.0,0.,12.0
1979-07-05 06:28:25.450 ,5,0,0.,12.0,0.,12.0,0.,12.0,0.,12.0
1979-07-05 06:28:37.450 ,5,0,0.,12.0,0.,12.0,0.,12.0,0.,12.0
1979-07-05 06:28:49.450 ,6,1,0.,12.0,0.,12.0,0.,12.0,0.,12.0
1979-07-05 06:29:01.450 ,6,1,0.,12.0,0.,12.0,0.,12.0,0.,12.0
1979-07-05 06:29:13.450 ,6,0,0.,12.0,0.,12.0,0.,12.0,0.,12.0
1979-07-05 06:29:25.450 ,6,0,0.,12.0,0.,12.0,0.,12.0,0.,12.0
1979-07-05 06:29:37.450 ,7,1,0.,12.0,0.,12.0,0.,12.0,0.,12.0
1979-07-05 06:29:49.450 ,7,1,0.,12.0,0.,12.0,0.,12.0,0.,12.0
1979-07-05 06:30:01.450 ,7,0,0.,12.0,0.,12.0,0.,12.0,0.,12.0
1979-07-05 06:30:13.450 ,7,0,0.,12.0,0.,12.0,0.,12.0,0.,12.0
1979-07-05 06:30:25.450 ,7,1,0.,12.0,0.,12.0,0.,12.0,0.,12.0
1979-07-05 06:30:37.450 ,7,1,0.,12.0,0.,12.0,0.,12.0,0.,12.0
1979-07-05 06:30:49.450 ,7,0,0.,12.0,0.,12.0,0.,12.0,0.,12.0
1979-07-05 06:31:01.450 ,7,0,0.,12.0,0.,12.0,0.,12.0,0.,12.0
1979-07-05 06:31:13.450 ,6,1,0.,12.0,0.,12.0,0.,12.0,0.,12.0
1979-07-05 06:31:25.450 ,6,1,0.,12.0,0.,12.0,0.,12.0,0.,12.0
1979-07-05 06:31:37.450 ,6,0,0.,12.0,0.,12.0,0.,12.0,0.,12.0
1979-07-05 06:31:49.450 ,6,0,0.,12.0,0.,12.0,0.,12.0,0.,12.0
1979-07-05 06:32:01.450 ,5,1,0.,12.0,0.,12.0,0.,12.0,0.,12.0
1979-07-05 06:32:13.450 ,5,1,0.,12.0,0.,12.0,0.,12.0,0.,12.0
1979-07-05 06:32:25.450 ,5,0,0.,12.0,0.,12.0,0.,12.0,0.,12.0
1979-07-05 06:32:37.450 ,5,0,0.,12.0,0.,12.0,0.,12.0,0.,12.0
1979-07-05 06:32:49.450 ,4,1,0.,12.0,0.,12.0,0.,12.0,0.,12.0
1979-07-05 06:33:01.450 ,4,1,0.,12.0,0.,12.0,0.,12.0,0.,12.0
1979-07-05 06:33:13.450 ,4,0,0.,12.0,0.,12.0,0.,12.0,0.,12.0
1979-07-05 06:33:25.450 ,4,0,0.,12.0,0.,12.0,0.,12.0,0.,12.0
1979-07-05 06:33:37.450 ,3,1,0.,12.0,0.,12.0,0.,12.0,0.,12.0
1979-07-05 06:33:49.450 ,3,1,0.,12.0,0.,12.0,0.,12.0,0.,12.0
1979-07-05 06:34:01.450 ,3,0,0.,12.0,0.,12.0,0.,12.0,0.,12.0
1979-07-05 06:34:13.450 ,3,0,0.,12.0,0.,12.0,0.,12.0,0.,12.0
1979-07-05 06:34:25.450 ,2,1,0.,12.0,0.,12.0,0.,12.0,0.,12.0
1979-07-05 06:34:37.450 ,2,1,0.,12.0,0.,12.0,0.,12.0,0.,12.0
1979-07-05 06:34:49.450 ,2,0,0.,12.0,0.,12.0,0.,12.0,0.,12.0
1979-07-05 06:35:01.450 ,2,0,0.,12.0,0.,12.0,0.,12.0,0.,12.0
1979-07-05 06:35:13.450 ,1,1,0.,12.0,0.,12.0,0.,12.0,0.,12.0
1979-07-05 06:35:25.450 ,1,1,0.,12.0,0.,12.0,0.,12.0,0.,12.0
1979-07-05 06:35:37.450 ,1,0,0.,12.0,0.,12.0,0.,12.0,0.,12.0
1979-07-05 06:35:49.450 ,1,0,0.,12.0,0.,12.0,0.,12.0,0.,12.0
1979-07-05 06:36:01.450 ,0,1,0.,12.0,0.,12.0,0.,12.0,0.,12.0
1979-07-05 06:36:13.450 ,0,1,0.,12.0,0.,12.0,0.,12.0,0.,12.0
1979-07-05 06:36:25.450 ,0,0,0.,12.0,0.,12.0,0.,12.0,0.,12.0
1979-07-05 06:36:37.450 ,0,0,0.,12.0,0.,12.0,0.,12.0,0.,12.0
1979-07-05 06:36:49.450 ,0,1,0.,12.0,0.,12.0,0.,12.0,0.,12.0
1979-07-05 06:37:01.450 ,0,1,0.,12.0,0.,12.0,0.,12.0,0.,12.0
1979-07-05 06:37:13.450 ,0,0,0.,12.0,0.,12.0,0.,12.0,0.,12.0
1979-07-05 06:37:25.450 ,0,0,0.,12.0,0.,12.0,0.,12.0,0.,12.0
1979-07-05 06:37:37.450 ,1,1,0.,12.0,0.,12.0,0.,12.0,0.,12.0
1979-07-05 06:37:49.450 ,1,1,0.,12.0,0.,12.0,0.,12.0,0.,12.0
1979-07-05 06:38:01.450 ,1,0,0.,12.0,0.,12.0,0.,12.0,0.,12.0
1979-07-05 06:38:13.450 ,1,0,0.,12.0,0.,12.0,0.,12.0,0.,12.0
1979-07-05 06:38:25.450 ,2,1,0.,12.0,0.,12.0,0.,12.0,0.,12.0
1979-07-05 06:38:37.450 ,2,1,0.,12.0,0.,12.0,0.,12.0,0.,12.0
1979-07-05 06:38:49.450 ,2,0,0.,12.0,0.,12.0,0.,12.0,0.,12.0
1979-07-05 06:39:01.450 ,2,0,0.,12.0,0.,12.0,0.,12.0,0.,12.0
1979-07-05 06:39:13.450 ,3,1,0.,12.0,0.,12.0,0.,12.0,0.,12.0
1979-07-05 06:39:25.450 ,3,1,0.,12.0,0.,12.0,0.,12.0,0.,12.0
1979-07-05 06:39:37.450 ,3,0,0.,12.0,0.,12.0,0.,12.0,0.,12.0
1979-07-05 06:39:49.450 ,3,0,0.,12.0,0.,12.0,0.,12.0,0.,12.0
1979-07-05 06:40:01.450 ,4,1,0.,12.0,0.,12.0,0.,12.0,0.,12.0
1979-07-05 06:40:13.450 ,4,1,0.,12.0,0.,12.0,0.,12.0,0.,12.0
1979-07-05 06:40:25.450 ,4,0,0.,12.0,0.,12.0,0.,12.0,0.,12.0
1979-07-05 06:40:37.450 ,4,0,0.,12.0,0.,12.0,0.,12.0,0.,12.0
1979-07-05 06:40:49.450 ,5,1,0.,12.0,0.,12.0,0.,12.0,0.,12.0
1979-07-05 06:41:01.450 ,5,1,0.,12.0,0.,12.0,0.,12.0,0.,12.0
1979-07-05 06:41:13.450 ,5,0,0.,12.0,0.,12.0,0.,12.0,0.,12.0
1979-07-05 06:41:25.450 ,5,0,0.,12.0,0.,12.0,0.,12.0,0.,12.0
1979-07-05 06:41:37.450 ,6,1,0.,12.0,0.,12.0,0.,12.0,0.,12.0
1979-07-05 06:41:49.450 ,6,1,0.,12.0,0.,12.0,0.,12.0,0.,12.0
1979-07-05 06:42:01.450 ,6,0,0.,12.0,0.,12.0,0.,12.0,0.,12.0
1979-07-05 06:42:13.450 ,6,0,0.,12.0,0.,12.0,0.,12.0,0.,12.0
1979-07-05 06:42:25.450 ,7,0,0.,12.0,0.,12.0,0.,12.0,0.,12.0
1979-07-05 06:42:37.450 ,7,0,0.,12.0,0.,12.0,0.,12.0,0.,12.0
1979-07-05 06:42:49.450 ,7,0,0.,12.0,0.,12.0,0.,12.0,0.,12.0
1979-07-05 06:43:01.450 ,7,0,0.,12.0,0.,12.0,0.,12.0,0.,12.0
1979-07-05 06:43:13.450 ,4,1,0.,12.0,0.,12.0,0.,12.0,0.,12.0
1979-07-05 06:43:25.450 ,4,1,0.,12.0,0.,12.0,0.,12.0,0.,12.0
1979-07-05 06:43:37.450 ,0,1,0.,12.0,0.,12.0,0.,12.0,0.,12.0
1979-07-05 06:43:49.450 ,0,1,0.,12.0,0.,12.0,0.,12.0,0.,12.0
1979-07-05 06:44:01.450 ,3,1,0.,12.0,0.,12.0,0.,12.0,0.,12.0
1979-07-05 06:44:13.450 ,3,1,0.,12.0,0.,12.0,0.,12.0,0.,12.0
1979-07-05 06:44:25.450 ,7,1,0.,12.0,0.,12.0,0.,12.0,0.,12.0
1979-07-05 06:44:37.450 ,7,1,0.,12.0,0.,12.0,0.,12.0,0.,12.0
1979-07-05 06:44:49.450 ,4,1,0.,12.0,0.,12.0,0.,12.0,0.,12.0
1979-07-05 06:45:01.450 ,4,1,0.,12.0,0.,12.0,0.,12.0,0.,12.0
1979-07-05 06:45:13.450 ,0,1,0.,12.0,0.,12.0,0.,12.0,0.,12.0
1979-07-05 06:45:25.450 ,0,1,0.,12.0,0.,12.0,0.,12.0,0.,12.0
1979-07-05 06:45:37.450 ,3,1,0.,12.0,0.,12.0,0.,12.0,0.,12.0
1979-07-05 06:45:49.450 ,3,1,0.,12.0,0.,12.0,0.,12.0,0.,12.0
1979-07-05 06:46:01.450 ,7,1,0.,12.0,0.,12.0,0.,12.0,0.,12.0
1979-07-05 06:46:13.450 ,7,1,0.,12.0,0.,12.0,0.,12.0,0.,12.0
1979-07-05 06:46:25.450 ,4,1,0.,12.0,0.,12.0,0.,12.0,0.,12.0
1979-07-05 06:46:37.450 ,4,1,0.,12.0,0.,12.0,0.,12.0,0.,12.0
1979-07-05 06:46:49.450 ,0,1,0.,12.0,0.,12.0,0.,12.0,0.,12.0
1979-07-05 06:47:01.450 ,0,1,0.,12.0,0.,12.0,0.,12.0,0.,12.0
1979-07-05 06:47:13.450 ,3,1,0.,12.0,0.,12.0,0.,12.0,0.,12.0
1979-07-05 06:47:25.450 ,3,1,0.,12.0,0.,12.0,0.,12.0,0.,12.0
1979-07-05 06:47:37.450 ,7,1,0.,12.0,0.,12.0,0.,12.0,0.,12.0
1979-07-05 06:47:49.450 ,7,1,0.,12.0,0.,12.0,0.,12.0,0.,12.0
1979-07-05 06:48:01.450 ,4,1,0.,12.0,0.,12.0,0.,12.0,0.,12.0
1979-07-05 06:48:13.450 ,4,1,0.,12.0,0.,12.0,0.,12.0,0.,12.0
1979-07-05 06:48:25.450 ,0,1,0.,12.0,0.,12.0,0.,12.0,0.,12.0
1979-07-05 06:48:37.450 ,0,1,0.,12.0,0.,12.0,0.,12.0,0.,12.0
1979-07-05 06:48:49.450 ,3,1,0.,12.0,0.,12.0,0.,12.0,0.,12.0
1979-07-05 06:49:01.450 ,3,1,0.,12.0,0.,12.0,0.,12.0,0.,12.0
1979-07-05 06:49:13.450 ,7,1,0.,12.0,0.,12.0,0.,12.0,0.,12.0
1979-07-05 06:49:25.450 ,7,1,0.,12.0,0.,12.0,0.,12.0,0.,12.0
1979-07-05 06:49:37.450 ,4,1,0.,12.0,0.,12.0,0.,12.0,0.,12.0
1979-07-05 06:49:49.450 ,4,1,0.,12.0,0.,12.0,0.,12.0,0.,12.0
1979-07-05 06:50:01.450 ,0,1,0.,12.0,0.,12.0,0.,12.0,0.,12.0
1979-07-05 06:50:13.450 ,0,1,0.,12.0,0.,12.0,0.,12.0,0.,12.0
1979-07-05 06:50:25.450 ,3,1,0.,12.0,0.,12.0,0.,12.0,0.,12.0
1979-07-05 06:50:37.450 ,3,1,0.,12.0,0.,12.0,0.,12.0,0.,12.0
1979-07-05 06:50:49.450 ,7,1,0.,12.0,0.,12.0,0.,12.0,0.,12.0
1979-07-05 06:51:01.450 ,7,1,0.,12.0,0.,12.0,0.,12.0,0.,12.0
1979-07-05 06:51:13.450 ,4,1,0.,12.0,0.,12.0,0.,12.0,0.,12.0
1979-07-05 06:51:25.450 ,4,1,0.,12.0,0.,12.0,0.,12.0,0.,12.0
1979-07-05 06:51:37.450 ,0,1,1.,12.0,0.,12.0,0.,12.0,0.,12.0
1979-07-05 06:51:49.450 ,0,1,0.,12.0,0.,12.0,0.,12.0,0.,12.0
1979-07-05 06:52:01.450 ,3,1,0.,12.0,0.,12.0,0.,12.0,0.,12.0
1979-07-05 06:52:13.450 ,3,1,0.,12.0,0.,12.0,0.,12.0,0.,12.0
1979-07-05 06:52:25.450 ,7,1,0.,12.0,0.,12.0,0.,12.0,0.,12.0
1979-07-05 06:52:37.450 ,7,1,0.,12.0,0.,12.0,0.,12.0,0.,12.0
1979-07-05 06:52:49.450 ,4,1,0.,12.0,0.,12.0,0.,12.0,0.,12.0
1979-07-05 06:53:01.450 ,4,1,0.,12.0,0.,12.0,0.,12.0,0.,12.0
1979-07-05 06:53:13.450 ,0,1,0.,12.0,0.,12.0,0.,12.0,0.,12.0
1979-07-05 06:53:25.450 ,0,1,0.,12.0,0.,12.0,0.,12.0,0.,12.0
1979-07-05 06:53:37.450 ,0,0,0.,12.0,0.,12.0,0.,12.0,0.,12.0
1979-07-05 06:53:49.450 ,0,0,0.,12.0,0.,12.0,0.,12.0,0.,12.0
1979-07-05 06:54:01.450 ,0,0,0.,12.0,0.,12.0,0.,12.0,0.,12.0
1979-07-05 06:54:13.450 ,0,0,0.,12.0,0.,12.0,0.,12.0,0.,12.0
1979-07-05 06:54:25.450 ,5,1,0.,12.0,0.,12.0,0.,12.0,0.,12.0
1979-07-05 06:54:37.450 ,5,1,0.,12.0,0.,12.0,0.,12.0,0.,12.0
1979-07-05 06:54:49.450 ,5,0,0.,12.0,0.,12.0,0.,12.0,0.,12.0
1979-07-05 06:55:01.450 ,5,0,0.,12.0,0.,12.0,0.,12.0,0.,12.0
1979-07-05 06:55:13.450 ,4,1,0.,12.0,0.,12.0,0.,12.0,0.,12.0
1979-07-05 06:55:25.450 ,4,1,0.,12.0,0.,12.0,0.,12.0,0.,12.0
1979-07-05 06:55:37.450 ,4,0,0.,12.0,0.,12.0,0.,12.0,0.,12.0
1979-07-05 06:55:49.450 ,4,0,0.,12.0,0.,12.0,0.,12.0,0.,12.0
1979-07-05 06:56:01.450 ,3,1,0.,12.0,0.,12.0,0.,12.0,0.,12.0
1979-07-05 06:56:13.450 ,3,1,0.,12.0,0.,12.0,0.,12.0,0.,12.0
1979-07-05 06:56:25.450 ,3,0,0.,12.0,0.,12.0,0.,12.0,0.,12.0
1979-07-05 06:56:37.450 ,3,0,0.,12.0,0.,12.0,0.,12.0,0.,12.0
1979-07-05 06:56:49.450 ,2,1,0.,12.0,0.,12.0,0.,12.0,0.,12.0
1979-07-05 06:57:01.450 ,2,1,0.,12.0,0.,12.0,0.,12.0,0.,12.0
1979-07-05 06:57:13.450 ,2,0,0.,12.0,0.,12.0,0.,12.0,0.,12.0
1979-07-05 06:57:25.450 ,2,0,0.,12.0,0.,12.0,0.,12.0,0.,12.0
1979-07-05 06:57:37.450 ,1,1,0.,12.0,0.,12.0,0.,12.0,0.,12.0
1979-07-05 06:57:49.450 ,1,1,0.,12.0,0.,12.0,0.,12.0,0.,12.0
1979-07-05 06:58:01.450 ,1,0,0.,12.0,0.,12.0,0.,12.0,0.,12.0
1979-07-05 06:58:13.450 ,1,0,0.,12.0,0.,12.0,0.,12.0,0.,12.0
1979-07-05 06:58:25.450 ,0,1,0.,12.0,0.,12.0,0.,12.0,0.,12.0
1979-07-05 06:58:37.450 ,0,1,0.,12.0,0.,12.0,0.,12.0,0.,12.0
1979-07-05 06:58:49.450 ,0,0,1.,12.0,0.,12.0,0.,12.0,0.,12.0
1979-07-05 06:59:01.450 ,0,0,0.,12.0,0.,12.0,0.,12.0,0.,12.0
1979-07-05 06:59:13.450 ,0,1,0.,12.0,0.,12.0,0.,12.0,0.,12.0
1979-07-05 06:59:25.450 ,0,1,0.,12.0,0.,12.0,0.,12.0,0.,12.0
1979-07-05 06:59:37.450 ,0,0,0.,12.0,0.,12.0,0.,12.0,0.,12.0
1979-07-05 06:59:49.450 ,0,0,0.,12.0,0.,12.0,0.,12.0,0.,12.0
1979-07-05 07:00:01.450 ,1,1,0.,12.0,0.,12.0,0.,12.0,0.,12.0
1979-07-05 07:00:13.450 ,1,1,0.,12.0,0.,12.0,0.,12.0,0.,12.0
1979-07-05 07:00:25.450 ,1,0,0.,12.0,0.,12.0,0.,12.0,0.,12.0
1979-07-05 07:00:37.450 ,1,0,0.,12.0,0.,12.0,0.,12.0,0.,12.0
1979-07-05 07:00:49.450 ,2,1,0.,12.0,0.,12.0,0.,12.0,0.,12.0
1979-07-05 07:01:01.450 ,2,1,0.,12.0,0.,12.0,0.,12.0,0.,12.0
1979-07-05 07:01:13.450 ,2,0,0.,12.0,0.,12.0,0.,12.0,0.,12.0
1979-07-05 07:01:25.450 ,2,0,0.,12.0,0.,12.0,0.,12.0,0.,12.0
1979-07-05 07:01:37.450 ,3,1,0.,12.0,0.,12.0,0.,12.0,0.,12.0
1979-07-05 07:01:49.450 ,3,1,0.,12.0,0.,12.0,0.,12.0,0.,12.0
1979-07-05 07:02:01.450 ,3,0,0.,12.0,0.,12.0,0.,12.0,0.,12.0
1979-07-05 07:02:13.450 ,3,0,0.,12.0,0.,12.0,0.,12.0,0.,12.0
1979-07-05 07:02:25.450 ,4,1,0.,12.0,0.,12.0,0.,12.0,0.,12.0
1979-07-05 07:02:37.450 ,4,1,0.,12.0,0.,12.0,0.,12.0,0.,12.0
1979-07-05 07:02:49.450 ,4,0,0.,12.0,0.,12.0,0.,12.0,0.,12.0
1979-07-05 07:03:01.450 ,4,0,0.,12.0,0.,12.0,0.,12.0,0.,12.0
1979-07-05 07:03:13.450 ,5,1,0.,12.0,0.,12.0,0.,12.0,0.,12.0
1979-07-05 07:03:25.450 ,5,1,0.,12.0,0.,12.0,0.,12.0,0.,12.0
1979-07-05 07:03:37.450 ,5,0,0.,12.0,0.,12.0,0.,12.0,0.,12.0
1979-07-05 07:03:49.450 ,5,0,0.,12.0,0.,12.0,0.,12.0,0.,12.0
1979-07-05 07:04:01.450 ,6,1,0.,12.0,0.,12.0,0.,12.0,0.,12.0
1979-07-05 07:04:13.450 ,6,1,0.,12.0,0.,12.0,0.,12.0,0.,12.0
1979-07-05 07:04:25.450 ,6,0,0.,12.0,0.,12.0,0.,12.0,0.,12.0
1979-07-05 07:04:37.450 ,6,0,0.,12.0,0.,12.0,0.,12.0,0.,12.0
1979-07-05 07:04:49.450 ,7,1,0.,12.0,0.,12.0,0.,12.0,0.,12.0
1979-07-05 07:05:01.450 ,7,1,0.,12.0,0.,12.0,0.,12.0,0.,12.0
1979-07-05 07:05:13.450 ,7,0,0.,12.0,0.,12.0,0.,12.0,0.,12.0
1979-07-05 07:05:25.450 ,7,0,0.,12.0,0.,12.0,0.,12.0,0.,12.0
1979-07-05 07:05:37.450 ,7,1,0.,12.0,0.,12.0,0.,12.0,0.,12.0
1979-07-05 07:05:49.450 ,7,1,0.,12.0,0.,12.0,0.,12.0,0.,12.0
1979-07-05 07:06:01.450 ,7,0,0.,12.0,0.,12.0,0.,12.0,0.,12.0
1979-07-05 07:06:13.450 ,7,0,0.,12.0,0.,12.0,0.,12.0,0.,12.0
1979-07-05 07:06:25.450 ,6,1,0.,12.0,0.,12.0,0.,12.0,0.,12.0
1979-07-05 07:06:37.450 ,6,1,0.,12.0,0.,12.0,0.,12.0,0.,12.0
1979-07-05 07:06:49.450 ,6,0,0.,12.0,0.,12.0,0.,12.0,0.,12.0
1979-07-05 07:07:01.450 ,6,0,0.,12.0,0.,12.0,0.,12.0,0.,12.0
1979-07-05 07:07:13.450 ,5,1,0.,12.0,0.,12.0,0.,12.0,0.,12.0
1979-07-05 07:07:25.450 ,5,1,0.,12.0,0.,12.0,0.,12.0,0.,12.0
1979-07-05 07:07:37.450 ,5,0,0.,12.0,0.,12.0,0.,12.0,0.,12.0
1979-07-05 07:07:49.450 ,5,0,0.,12.0,0.,12.0,0.,12.0,0.,12.0
1979-07-05 07:08:01.450 ,4,1,0.,12.0,0.,12.0,0.,12.0,0.,12.0
1979-07-05 07:08:13.450 ,4,1,0.,12.0,0.,12.0,0.,12.0,0.,12.0
1979-07-05 07:08:25.450 ,4,0,0.,12.0,0.,12.0,0.,12.0,0.,12.0
1979-07-05 07:08:37.450 ,4,0,0.,12.0,0.,12.0,0.,12.0,0.,12.0
1979-07-05 07:08:49.450 ,3,1,0.,12.0,0.,12.0,0.,12.0,0.,12.0
1979-07-05 07:09:01.450 ,3,1,0.,12.0,0.,12.0,0.,12.0,0.,12.0
1979-07-05 07:09:13.450 ,3,0,0.,12.0,0.,12.0,0.,12.0,0.,12.0
1979-07-05 07:09:25.450 ,3,0,0.,12.0,0.,12.0,0.,12.0,0.,12.0
1979-07-05 07:09:37.450 ,2,1,0.,12.0,0.,12.0,0.,12.0,0.,12.0
1979-07-05 07:09:49.450 ,2,1,0.,12.0,0.,12.0,0.,12.0,0.,12.0
1979-07-05 07:10:01.450 ,2,0,0.,12.0,0.,12.0,0.,12.0,0.,12.0
1979-07-05 07:10:13.450 ,2,0,0.,12.0,0.,12.0,0.,12.0,0.,12.0
1979-07-05 07:10:25.450 ,1,1,0.,12.0,0.,12.0,0.,12.0,0.,12.0
1979-07-05 07:10:37.450 ,1,1,0.,12.0,0.,12.0,0.,12.0,0.,12.0
1979-07-05 07:10:49.450 ,1,0,0.,12.0,0.,12.0,0.,12.0,0.,12.0
1979-07-05 07:11:01.450 ,1,0,0.,12.0,0.,12.0,0.,12.0,0.,12.0
1979-07-05 07:11:13.450 ,0,1,0.,12.0,0.,12.0,0.,12.0,0.,12.0
1979-07-05 07:11:25.450 ,0,1,0.,12.0,0.,12.0,0.,12.0,0.,12.0
1979-07-05 07:11:37.450 ,0,0,0.,12.0,0.,12.0,0.,12.0,0.,12.0
1979-07-05 07:11:49.450 ,0,0,0.,12.0,0.,12.0,0.,12.0,0.,12.0
1979-07-05 07:12:01.450 ,0,1,0.,12.0,0.,12.0,0.,12.0,0.,12.0
1979-07-05 07:12:13.450 ,0,1,0.,12.0,0.,12.0,0.,12.0,0.,12.0
1979-07-05 07:12:25.450 ,0,0,0.,12.0,0.,12.0,0.,12.0,0.,12.0
1979-07-05 07:12:37.450 ,0,0,0.,12.0,0.,12.0,0.,12.0,0.,12.0
1979-07-05 07:12:49.450 ,1,1,0.,12.0,0.,12.0,0.,12.0,0.,12.0
1979-07-05 07:13:01.450 ,1,1,0.,12.0,0.,12.0,0.,12.0,0.,12.0
1979-07-05 07:13:13.450 ,1,0,0.,12.0,0.,12.0,0.,12.0,0.,12.0
1979-07-05 07:13:25.450 ,1,0,0.,12.0,0.,12.0,0.,12.0,0.,12.0
1979-07-05 07:13:37.450 ,2,1,0.,12.0,0.,12.0,0.,12.0,0.,12.0
1979-07-05 07:13:49.450 ,2,1,0.,12.0,0.,12.0,0.,12.0,0.,12.0
1979-07-05 07:14:01.450 ,2,0,0.,12.0,0.,12.0,0.,12.0,0.,12.0
1979-07-05 07:14:13.450 ,2,0,0.,12.0,0.,12.0,0.,12.0,0.,12.0
1979-07-05 07:14:25.450 ,3,1,0.,12.0,0.,12.0,0.,12.0,0.,12.0
1979-07-05 07:14:37.450 ,3,1,0.,12.0,0.,12.0,0.,12.0,0.,12.0
1979-07-05 07:14:49.450 ,3,0,0.,12.0,0.,12.0,0.,12.0,0.,12.0
1979-07-05 07:15:01.450 ,3,0,0.,12.0,0.,12.0,0.,12.0,0.,12.0
1979-07-05 07:15:13.450 ,4,1,0.,12.0,0.,12.0,0.,12.0,0.,12.0
1979-07-05 07:15:25.450 ,4,1,0.,12.0,0.,12.0,0.,12.0,0.,12.0
1979-07-05 07:15:37.450 ,4,0,0.,12.0,0.,12.0,0.,12.0,0.,12.0
1979-07-05 07:15:49.450 ,4,0,0.,12.0,0.,12.0,0.,12.0,0.,12.0
1979-07-05 07:16:01.450 ,5,1,0.,12.0,0.,12.0,0.,12.0,0.,12.0
1979-07-05 07:16:13.450 ,5,1,0.,12.0,0.,12.0,0.,12.0,0.,12.0
1979-07-05 07:16:25.450 ,5,0,0.,12.0,0.,12.0,0.,12.0,0.,12.0
1979-07-05 07:16:37.450 ,5,0,0.,12.0,0.,12.0,0.,12.0,0.,12.0
1979-07-05 07:16:49.450 ,6,1,0.,12.0,0.,12.0,0.,12.0,0.,12.0
1979-07-05 07:17:01.450 ,6,1,0.,12.0,0.,12.0,0.,12.0,0.,12.0
1979-07-05 07:17:13.450 ,6,0,0.,12.0,0.,12.0,0.,12.0,0.,12.0
1979-07-05 07:17:25.450 ,6,0,1.,12.0,0.,12.0,0.,12.0,0.,12.0